Location: ??????
(55.6130°N, 37.7882°E)
Time: 04:33:20
(UTC+00:00)

Cosmos 2221 - Pass Details

Date: 14 April 2024
Orbit: 582 x 603 km, 82.5° (Epoch: 23 May)

Event Time Altitude Azimuth Distance (km) Brightness Sun altitude
Exits shadow 00:05:03 34° 244° (WSW) 990 3.1 -17.3°
Maximum altitude 00:06:21 44° 289° (WNW) 822 3.0 -17.1°
Drops below altitude 10° 00:10:28 10° 2° (N) 1,937 5.8 -16.8°
Sets 00:12:46 0° 9° (N) 2,847 6.9 -16.5°
